XM-5

Last updated on Wed Oct 22 2025 00:02:47 GMT+0000 (Coordinated Universal Time)

1 37185U 10053A 25294.45647615 -.00000017 00000+0 00000+0 0 9990 2 37185 0.0604 268.5671 0000631 194.8902 335.8560 1.00271336 55085
UTC large
Height (km)
Speed (km/s)
/
Latitude / Longitude
Inclination (degrees)
Orbital Period (minutes)
Azimuth
Elevation
Range (km)
Doppler Factor

Next 0 passes for location: London (51.5072 / 0.1276)

Sorry there are no passes over London.